Preview of NWS' New Version of Forecast
This preview is not operational and should not be used for support decisions.
Latest weather observations around

Beaumont/Port Arthur Southeast Texas Regional Airport (KBPT)

Using English Units (Switch to International System of Units)
Date/ Time (CDT) Wind (mph) Vis. (mi) Weather Sky Cond. Temp (°F) Rel. Humidity Wind Chill (°F) Heat Index (°F) Pressure Precip. (in)
Air Dwpt 6 hour Altimeter (inHg) Sea level (inHg) 1 hr 3 hr 6 hr
Max Min
Sep 23 01:53 SE 6 10 Clear CLR 78 75     90%   80 30.02 30.02      
Sep 23 00:53 SSE 3 10 Clear CLR 78 75     90%   80 30.03 30.02     0
Sep 22 23:53 ESE 8 10 Mostly Clear FEW023 79 76     90%   83 30.04 30.03      
Sep 22 22:53 SE 5 10 Mostly Clear FEW025 78 75     90%   80 30.04 30.04      
Sep 22 21:53 ESE 5 10 Mostly Clear FEW023 79 75     88%   83 30.03 30.03   0  
Sep 22 20:53 SE 7 10 Mostly Clear FEW022 80 76     87%   85 30.02 30.02      
Sep 22 19:53 Calm 10 Clear   80 75     85%   85 30.01 30.01 0    
Sep 22 18:53 ESE 8 10 Mostly Clear FEW029 83 75     77%   90 30 30     0
Sep 22 17:53 SE 10 10 Partly Cloudy SCT031 85 75     72%   93 30 30      
Sep 22 16:53 ESE 14 10 Partly Cloudy SCT031 88 75     66%   98 30 29.99      
Sep 22 15:53 ESE 13 10 Mostly Cloudy SCT029 BKN034 88 75     66%   98 30 30 0 0  
Sep 22 14:53 SE 13 10 Light Rain SCT029 BKN034 88 76     68%   99 30.01 30.01 0    
Sep 22 13:53 SE 9 10 Light Rain SCT029 BKN034 86 75     70%   95 30.03 30.02 0    
Sep 22 12:53 ESE 10 10 Mostly Cloudy SCT029 BKN040 86 75     70%   95 30.04 30.04      
Sep 22 11:53 ESE 13 10 Mostly Cloudy SCT026 BKN035 86 75     70%   95 30.05 30.05      
Sep 22 10:53 ESE 13 10 Mostly Cloudy SCT026 BKN035 85 75     72%   93 30.06 30.06      
Sep 22 09:53 ESE 15 10 Cloudy BKN026 BKN037 OVC050 84 75     74%   92 30.06 30.05      
Sep 22 08:53 ESE 11 10 Partly Cloudy SCT029 SCT035 84 77     80%   94 30.05 30.05      
Sep 22 07:53 Calm 9 Cloudy SCT029 OVC039 80 77     90%   86 30.04 30.04      
Sep 22 06:53 Calm 10 Mostly Cloudy SCT030 BKN038 78 76     93%   80 30.03 30.03     0
Sep 22 05:53 E 5 9 Cloudy SCT027 BKN034 OVC042 78 76     93%   80 30.03 30.03      
Sep 22 05:40 ENE 6 10 Cloudy SCT027 OVC034 78 76     93%   80 30.03        
Sep 22 05:20 E 5 10 Cloudy BKN027 BKN035 OVC070 77 75     94%   79 30.03        
Sep 22 04:53 ESE 8 10 Cloudy FEW017 BKN046 OVC060 77 75     94%   79 30.03 30.03 0    
Sep 22 04:27 ESE 9 10 Cloudy FEW019 BKN033 OVC047 78 75     90%   80 30.03   0    
Sep 22 03:53 ESE 9 9 Light Rain SCT015 BKN022 OVC070 78 76     93%   80 30.03 30.02 0 0  
Sep 22 03:41 ESE 3 10 Cloudy SCT017 BKN024 OVC070 78 76     93%   80 30.03   0    
Sep 22 03:25 E 9 3 Light Rain and Fog/Mist FEW019 BKN038 OVC065 78 76     93%   80 30.02   0    
Sep 22 03:17 ENE 13 2 Heavy Rain and Fog/Mist FEW017 BKN025 OVC050 78 76     93%   80 30.03   0    
Sep 22 02:53 E 5 10 Light Rain FEW021 SCT030 OVC048 78 76     93%   80 30.03 30.03 0    
Sep 22 02:16 E 6 7 Light Rain SCT023 BKN033 OVC050 79 76     90%   83 30.03   0    
Sep 22 01:53 ENE 6 10 Cloudy SCT020 BKN025 OVC035 79 77     94%   83 30.03 30.03 0    
Sep 22 00:53 E 9 10 Mostly Cloudy SCT021 BKN027 BKN033 80 76     87%   85 30.03 30.03     0
Sep 21 23:53 E 8 10 Partly Cloudy FEW025 SCT048 79 77     94%   83 30.04 30.04      
Sep 21 22:53 ESE 8 10 Partly Cloudy SCT065 78 75     90%   80 30.05 30.05 0    
Sep 21 21:53 ESE 7 10 Clear CLR 80 76     87%   85 30.05 30.04      
Sep 21 20:53 ESE 7 10 Mostly Clear FEW040 81 76     85%   87 30.03 30.03      
Sep 21 19:53 ESE 7 10 Clear CLR 81 76     85%   87 30.02 30.01      
Sep 21 18:53 ESE 10 10 Mostly Clear FEW030 83 75     77%   90 30.02 30.01      
Sep 21 17:53 ESE 10 10 Partly Cloudy SCT038 86 74     67%   94 30.02 30.02      
Sep 21 17:25 SE 13 10 Partly Cloudy SCT038 87 74     65%   95 30.02        
Sep 21 16:53 ESE 11 10 Clear CLR 88 73     61%   96 30.02 30.01      
Sep 21 15:53 SE 13 10 Mostly Clear FEW034 88 74     63%   97 30.03 30.03      
Sep 21 14:53 ESE 13 10 Clear CLR 89 74     61%   98 30.05 30.05      
Sep 21 13:53 SE 15 10 Partly Cloudy SCT035 89 75     63%   99 30.07 30.07      
Sep 21 12:53 ESE 11 10 Mostly Cloudy SCT030 BKN040 89 74     61%   98 30.09 30.09      
Sep 21 11:53 E 13 10 Partly Cloudy SCT023 SCT029 87 76     70%   98 30.1 30.1      
Sep 21 10:53 E 13 10 Clear CLR 86 77     75%   97 30.11 30.1      
Sep 21 09:53 E 10 10 Partly Cloudy SCT045 84 77     80%   94 30.1 30.1      
Sep 21 09:00 E 11 10 Partly Cloudy SCT045 81 76     85%   87 30.09        
Sep 21 08:59 E 13 10 Clear CLR 81 76     85%   87 30.09        
Sep 21 08:53 E 14 10 Clear CLR 80 76     87%   85 30.09 30.09      
Sep 21 07:53 E 8 10 Clear CLR 78 75     90%   80 30.08 30.08      
Sep 21 06:53 E 7 10 Mostly Clear FEW030 77 75     94%   79 30.06 30.06     0
Sep 21 05:53 E 6 10 Clear CLR 77 75     94%   79 30.06 30.06      
Sep 21 04:53 E 9 10 Mostly Clear FEW060 77 75     94%   79 30.04 30.04 0    
Sep 21 03:53 E 8 10 Light Rain FEW043 SCT050 SCT065 77 75     94%   79 30.04 30.04 0 0  
Sep 21 02:53 E 8 10 Clear CLR 78 75     90%   80 30.05 30.05      
Sep 21 01:53 E 7 10 Clear CLR 78 75     90%   80 30.05 30.05      
Sep 21 00:53 ENE 6 10 Clear CLR 77 75     94%   79 30.06 30.06      
Sep 20 23:53 E 7 10 Clear CLR 79 75     88%   83 30.06 30.06      
Sep 20 22:53 E 7 10 Mostly Clear FEW023 79 75     88%   83 30.06 30.05      
Sep 20 21:53 E 8 10 Clear CLR 78 75     90%   80 30.05 30.05      
Sep 20 20:53 ESE 8 10 Mostly Clear FEW050 79 75     88%   83 30.04 30.04      
Sep 20 19:53 ESE 8 10 Partly Cloudy SCT080 80 75     85%   85 30.03 30.02      
Sep 20 18:53 ESE 9 10 Clear   81 76     85%   87 30.02 30.02     0
Sep 20 17:53 SE 8 10 Mostly Cloudy SCT038 BKN050 82 76     82%   89 30.02 30.02      
Sep 20 16:53 ESE 14 10 Clear   84 77     80%   94 30 30      
Sep 20 15:53 ESE 9 10 Mostly Cloudy SCT070 BKN100 83 76     79%   91 30.01 30.01 0 0  
Sep 20 14:53 NE 5 3 Light Rain and Fog/Mist SCT009 BKN027 OVC100 81 77     88%   88 30.03 30.03 0    
Sep 20 14:41 ENE 6 3 Heavy Rain and Fog/Mist SCT009 BKN027 OVC100 79 76     90%   83 30.03   0    
Sep 20 14:31 SE 8 1.75 Heavy Rain SCT009 BKN027 OVC100 78 73     85%   80 30.04   0    
Sep 20 14:21 SE 9 1.75 Heavy Rain and Fog/Mist SCT021 BKN050 OVC100 80 77     90%   86 30.04   0    
Sep 20 13:53 E 8 7 Rain BKN040 OVC120 80 76     87%   85 30.03 30.03 0    
Sep 20 12:53 NE 10 8 Light Rain BKN070 OVC090 79 75     88%   83 30.04 30.04 0   1
Sep 20 12:14 E 8 3 Rain and Fog/Mist BKN021 BKN031 BKN042 77 74     90%   79 30.06   0    
Sep 20 12:06 S 7 2.5 Rain and Fog/Mist BKN021 BKN031 BKN042 76 74     94%   78 30.07   0    
Sep 20 11:53 SW 8 9 Light Rain BKN021 BKN031 BKN050 79 74     85%   83 30.06 30.06 0    
Sep 20 10:53 WSW 5 10 Cloudy FEW026 SCT075 OVC110 82 75     79%   89 30.05 30.05      
Sep 20 09:53 E 6 10 Cloudy BKN070 OVC110 79 73     82%   82 30.05 30.04 0 0  
Sep 20 08:53 ESE 7 4 Rain and Fog/Mist FEW060 BKN110 77 74     90%   79 30.02 30.02 0    
Sep 20 08:21 SE 7 4 Rain and Fog/Mist BKN050 OVC070 76 74     94%   78 30.04   0    
Sep 20 08:12 ESE 9 2 Heavy Rain and Fog/Mist FEW018 BKN050 OVC070 76 74     94%   78 30.03   0    
Sep 20 08:02 SE 17 1.75 Thunderstorms and Heavy Rain and Fog/Mist FEW012 BKN039 OVC050 76 74     94%   78 30.02   0    
Sep 20 07:53 SE 17 3 Thunderstorms and Heavy Rain and Fog/Mist SCT014 BKN030 OVC060 76 73     91%   77 30.01 30.01 0    
Sep 20 07:45 SE 14 4 Heavy Rain and Fog/Mist SCT012 BKN022 OVC038 77 75     94%   79 30.02   0    
Sep 20 07:37   2 Heavy Rain and Fog/Mist FEW012 BKN024 OVC039 78 74     87%   80 30   0    
Sep 20 07:13 ESE 5 10 Light Rain SCT016 BKN023 BKN031 79 76     90%   83 29.98   0    
Sep 20 07:06 ESE 6 9 Light Rain SCT023 BKN031 BKN100 78 75     90%   80 29.98   0    
Sep 20 06:53 ESE 6 10 Mostly Cloudy SCT023 BKN028 BKN120 78 73     85%   80 29.98 29.98     0
Sep 20 06:05 E 11 10 Mostly Cloudy FEW019 SCT026 BKN120 78 72     82%   79 29.97        
Sep 20 05:53 ESE 11 10 Mostly Cloudy FEW019 BKN024 BKN029 79 72     79%   82 29.97 29.97 0    
Sep 20 05:32 ESE 6 10 Partly Cloudy FEW017 SCT021 SCT120 80 77     90%   86 29.96   0    
Sep 20 04:53 E 3 10 Mostly Cloudy SCT021 BKN027 BKN032 81 78     91%   89 29.96 29.96      
Sep 20 03:53 ESE 6 10 Partly Cloudy FEW023 SCT120 81 77     88%   88 29.95 29.95      
Sep 20 03:27 SE 5 10 Cloudy FEW023 SCT029 OVC120 81 77     88%   88 29.95        
Sep 20 02:53 SE 7 10 Cloudy BKN023 OVC120 82 78     88%   91 29.95 29.95      
Sep 20 02:35 SE 6 10 Mostly Cloudy BKN022 81 78     91%   89 29.95        
Sep 20 01:53 ESE 9 10 Mostly Cloudy SCT017 SCT024 BKN048 81 78     91%   89 29.94 29.94      
Sep 20 01:43 SE 10 10 Mostly Cloudy SCT019 BKN024 BKN120 82 78     88%   91 29.94        
Sep 20 00:53 SE 10 10 Mostly Cloudy SCT016 SCT022 BKN110 81 78     91%   89 29.95 29.95     0
Sep 20 00:16 ESE 6 10 Cloudy SCT014 BKN020 OVC110 80 79     97%   87 29.94        
Sep 19 23:53 ESE 8 10 Mostly Cloudy BKN110 80 78     94%   86 29.95 29.95 0    
May 15 09:53 WNW 6 10 Clear CLR 85 66     53%   87 29.97 29.97 0 0  
May 15 00:53 W 6 10 Clear CLR 73 69     87%   74 29.95 29.95     0
May 14 05:43 Calm 0.25 Fog VV012 70 69     97%     29.98        
May 14 03:53 Calm 3 Fog/Mist CLR 72 70     93%   73 29.98 29.97      
May 13 12:53 SE 10 10 Mostly Cloudy SCT035 BKN047 BKN060 88 69     54%   92 30.05 30.05      
May 12 07:53 SSE 8 10 Clear CLR 76 70     82%   77 30.02 30.02      
May 11 21:53   10 Clear CLR 77 70     79%   78 29.99 29.99      
Notice The following observation data may not be complete
May 11 07:42   10 Mostly Clear FEW022          %              
Jun 11 21:00 SE 9 10 Mostly Cloudy FEW014 BKN035 BKN043 79 76     90%   83 29.92        
Jun 11 11:53 SE 9 10 Cloudy BKN021 OVC032 84 76     77%   93 29.96 29.96 0    
Jun 10 21:53 SE 9 10 Clear CLR 77 69     77%   78 29.94 29.94      
Jun 08 07:53 NNE 6 10 Clear CLR 72 61     68%   72 29.97 29.97      
Jun 06 12:53 W 10 10 Partly Cloudy FEW029 SCT085 85 73     68%   92 29.73 29.73      
Jun 06 07:53 NNW 3 8 Mostly Cloudy BKN014 BKN032 74 72     94%   75 29.75 29.74